CST,Max TemperatureF,Mean TemperatureF,Min TemperatureF,Max Dew PointF,MeanDew PointF,Min DewpointF,Max Humidity, Mean Humidity, Min Humidity, Max Sea Level PressureIn, Mean Sea Level PressureIn, Min Sea Level PressureIn, Max VisibilityMiles, Mean VisibilityMiles, Min VisibilityMiles, Max Wind SpeedMPH, Mean Wind SpeedMPH, Max Gust SpeedMPH,PrecipitationIn, CloudCover, Events, WindDirDegrees
2012-12-1,57,42,28,50,38,24,100,87,76,29.96,29.84,29.76,4,2,0,15,5,16,0.00,5,Fog,194
2012-12-2,62,43,24,44,32,23,100,85,48,30.04,29.94,29.75,7,2,0,14,5,,0.00,1,Fog,158
2012-12-3,63,48,32,48,37,20,97,71,32,30.08,29.77,29.60,10,5,0,31,11,39,0.01,1,Fog,254
2012-12-4,60,42,25,24,21,16,72,49,22,30.31,30.23,30.10,10,10,8,8,4,,0.00,0,,323
2012-12-5,54,39,24,29,24,16,75,52,32,30.32,30.10,29.87,10,10,10,28,11,34,0.00,0,,151
2012-12-6,51,46,39,35,27,24,62,48,36,30.01,29.92,29.83,10,10,10,22,13,,0.00,5,Rain,331
2012-12-7,39,32,26,29,26,21,85,70,55,30.02,29.97,29.91,10,8,5,15,7,,0.00,6,,2
2012-12-8,39,32,26,30,27,24,93,79,60,30.03,29.97,29.86,6,4,2,13,8,,0.00,7,,91
2012-12-9,37,26,14,33,16,2,83,67,56,30.17,29.99,29.83,10,9,4,32,16,41,0.00,7,,297
2012-12-10,28,16,3,8,2,-2,76,56,34,30.17,30.05,29.93,10,10,9,21,12,26,0.00,2,,253
2012-12-11,44,31,18,22,15,6,74,56,38,30.03,29.98,29.93,10,10,5,14,8,,0.00,2,,223
2012-12-12,54,40,26,17,16,13,58,40,22,30.00,29.95,29.89,10,10,10,28,14,36,0.00,0,,181
2012-12-13,52,36,19,23,17,11,71,48,31,30.12,30.02,29.95,10,9,5,15,11,,0.00,0,,252
2012-12-14,54,35,16,40,25,10,81,64,41,30.08,29.87,29.58,10,7,4,20,8,28,0.01,2,Rain,145
2012-12-15,46,40,33,43,38,30,97,88,81,29.73,29.56,29.45,9,3,2,21,12,29,0.64,8,Rain,317
2012-12-16,33,30,27,30,25,24,89,81,75,29.83,29.79,29.73,6,4,2,13,9,,0.00,7,Snow,344
2012-12-17,30,28,26,28,26,23,93,89,85,29.80,29.71,29.62,4,2,1,12,3,,0.00,7,,159
2012-12-18,39,32,26,31,27,23,93,85,68,29.87,29.64,29.46,8,3,0,26,9,36,0.00,4,Fog,298
2012-12-19,39,32,26,34,29,24,96,88,75,29.94,29.87,29.82,5,2,0,34,9,43,0.12,6,Fog-Rain-Snow,11
2012-12-20,26,22,15,27,17,9,100,84,71,30.27,30.00,29.84,10,3,0,32,28,41,0.01,5,Fog-Snow,329
2012-12-21,19,12,5,15,8,0,88,80,68,30.38,30.30,30.21,10,7,3,8,4,,0.00,0,,186
2012-12-22,32,20,9,23,14,6,88,81,69,30.19,30.05,29.95,7,4,2,15,7,,0.00,0,,324
2012-12-23,18,14,10,14,9,5,84,79,71,30.12,30.08,30.03,6,5,3,14,10,,0.00,2,,343
2012-12-24,19,14,10,12,6,1,78,72,67,30.35,30.17,30.04,10,8,4,21,13,,0.00,3,,333
2012-12-25,12,8,3,5,1,-3,80,73,67,30.57,30.46,30.36,10,10,10,21,16,,0.00,1,,354
2012-12-26,14,7,0,6,1,-5,85,76,67,30.43,30.31,30.18,10,10,9,10,6,,0.00,0,,353
2012-12-27,23,14,5,18,14,1,88,82,74,30.22,30.09,29.99,10,3,0,14,5,,0.02,7,Fog-Snow,89
2012-12-28,23,16,9,18,15,6,93,84,78,30.16,30.03,29.98,4,2,0,14,6,,0.02,8,Fog-Snow,330
2012-12-29,18,8,-2,12,2,-8,92,80,67,30.28,30.22,30.12,7,4,0,12,6,,0.00,2,Fog-Snow,225
2012-12-30,37,19,1,27,10,-2,92,80,62,30.27,30.14,29.96,10,6,1,18,8,28,0.00,0,,177
2012-12-31,23,16,7,16,13,1,88,79,68,30.32,30.23,30.14,10,7,3,23,9,,0.00,5,,357